Location: Unspecified
(0.0000°N, 0.0000°E)
Time: 09:53:34
(UTC+00:00)

ARIANE 2 DEB - Pass Details

Date: 10 March 2026
Orbit: 598 x 35366 km, 8.4° (Epoch: 18 September)

Event Time Altitude Azimuth Distance (km) Brightness Sun altitude
Exits shadow 01:51:18 61° 49° (NE) 5,111 ? -64.5°
Maximum altitude 09:23:02 65° 99° (E) 26,192 ? 48.0°
Drops below altitude 10° 11:13:42 10° 101° (E) 9,892 ? 75.3°
Sets 11:18:16 0° 100° (E) 9,627 ? 76.4°
